Flag for Philippines Weather past 2 weeks in Tarlac City, Philippines

Now
88 °F

Scattered clouds.


Feels Like: 87 °F
Forecast: 67 / 92 °F
Wind: 7 mph from Northeast

Location: Clarkfield Pampanga International Airport

Current Time: Mar 2, 2015 at 4:12:27 PM

Latest Report: Mar 2, 2015 at 4:00 PM


Visibility: N/A

Pressure: 29.83 "Hg

Humidity: 38%

Dew point: 59 °F

Location of Tarlac CityLocation

Historic Weather in Tarlac City — Graph

°F

Tarlac City temperature yesterday

Maximum temperature yesterday: 90 °F (at 3:00 PM)
Minimum temperature yesterday: 72 °F (at 6:00 AM)
Average temperature yesterday: 80 °F

Past Weeks' High & Low Weather Summary

 TemperatureHumidityPressure
High90 °F (Feb 27, 3:00 PM)100% (Feb 16, 1:00 AM)30.07 "Hg (Feb 16, 1:00 AM)
Low68 °F (Feb 23, 4:00 AM)35% (Mar 1, 1:00 PM)29.83 "Hg (Feb 17, 3:00 PM)
Average78 °F68%29.97 "Hg
* Reported Feb 15 3:00 PM — Mar 2 3:00 PM, Tarlac City, Weather by CustomWeather, © 2015

Note: Actual official high and low records may vary slightly from our data, if they occured in-between our weather recording intervals... More about our weather records

Advertising

Tarlac City weather history for previous 24 hours

 ConditionsComfort  
Time TempWeatherWind HumidityBarometerVisibility
3:00 PM
Mon, Mar 2
88 °FScattered clouds.6 mph38%29.83 "HgN/A
2:00 PM88 °FScattered clouds.8 mph40%29.86 "HgN/A
1:00 PM86 °FScattered clouds.3 mph38%29.89 "HgN/A
12:00 PM84 °FScattered clouds.5 mph40%29.95 "HgN/A
11:00 AM82 °FScattered clouds.9 mph42%29.98 "HgN/A
10:00 AM82 °FPartly sunny.8 mph48%29.98 "HgN/A
9:00 AM81 °FPartly sunny.6 mph54%29.98 "HgN/A
8:00 AM77 °FPartly sunny.5 mph65%29.98 "HgN/A
7:00 AM73 °FPartly sunny.6 mph69%29.95 "HgN/A
6:00 AM72 °FPassing clouds.3 mph73%29.95 "HgN/A
5:00 AM73 °FPassing clouds.2 mph69%29.95 "HgN/A
4:00 AM73 °FPassing clouds.2 mph69%29.92 "HgN/A
3:00 AM73 °FPassing clouds.2 mph69%29.95 "HgN/A
2:00 AM75 °FPassing clouds.3 mph65%29.95 "HgN/A
1:00 AM73 °FPassing clouds.2 mph69%29.98 "HgN/A
12:00 AM75 °FPassing clouds.2 mph65%29.98 "HgN/A
11:00 PM
Sun, Mar 1
75 °FPassing clouds.7 mph61%29.98 "HgN/A
10:00 PM77 °FPassing clouds.7 mph57%29.98 "HgN/A
9:00 PM79 °FPassing clouds.7 mph54%29.98 "HgN/A
8:00 PM79 °FPassing clouds.5 mph54%29.95 "HgN/A
6:00 PM82 °FScattered clouds.7 mph48%29.92 "HgN/A
5:00 PM86 °FScattered clouds.12 mph38%29.89 "HgN/A
4:00 PM90 °FScattered clouds.8 mph36%29.89 "HgN/A
Weather by CustomWeather, © 2015

See weather overviewHow to use our weather pages